Regional Weather Roundup
Issued by NWS Newport/Morehead, NC

Current Version | Previous Version | Graphics & Text | Print | Product List | Glossary On
Versions: 1 2 3 4 5 6 7 8 9 10 11 12 13 14 15 16 17 18 19 20 21 22 23 24 25 26 27 28 29 30 31 32 33 34 35 36 37 38 39 40 41 42 43 44 45 46 47 48 49 50
781 ASUS42 KMHX 101713 RWRMHX WEATHER ROUNDUP FOR EASTERN NORTH CAROLINA NATIONAL WEATHER SERVICE NEWPORT/MOREHEAD CITY NC 1200 PM EST SUN DEC 10 2017 NOTE: "FAIR" INDICATES FEW OR NO CLOUDS BELOW 12,000 FEET WITH NO SIGNIFICANT WEATHER AND/OR OBSTRUCTIONS TO VISIBILITY NCZ015>017-031-032-045>047-102-103-101800- NORTH COAST CITY SKY/WX TMP DP RH WIND PRES REMARKS EDENTON SUNNY 44 27 51 NW10G17 30.17S ELIZABETH CITY SUNNY 43 27 53 NW14 30.14F KITTY HAWK NOT AVBL MANTEO SUNNY 42 27 55 NW10 30.14F $$ NCZ045>047-081-094-103-104-101800- CENTRAL COAST CITY SKY/WX TMP DP RH WIND PRES REMARKS FRISCO SUNNY 44 31 60 NW10G18 30.15S $$ NCZ095-097-098-100-101-101800- SOUTHERN COAST CITY SKY/WX TMP DP RH WIND PRES REMARKS BEAUFORT SUNNY 43 26 51 NW13 30.18F CEDAR ISLAND NOT AVBL JACKSONVILLE SUNNY 43 25 49 NW16 30.18F PINEY ISLAND N/A N/A N/A N/A NW15G22 30.17F WILMINGTON SUNNY 44 25 47 NW13 30.21F $$ NCZ011>013-027>030-043-044-078>080-089-090>093-098-101800- COASTAL PLAIN CITY SKY/WX TMP DP RH WIND PRES REMARKS AHOSKIE SUNNY 40 25 55 NW6 30.17S CLINTON SUNNY 42 26 51 W13G20 30.22F ELIZABETHTOWN NOT AVBL GOLDSBORO SUNNY 44 24 46 W12 30.18F GREENVILLE SUNNY 41 23 48 NW10G17 30.20S HAVELOCK SUNNY 44 32 62 NW12 30.19F KENANSVILLE SUNNY 41 23 48 W13G20 30.21F KINSTON SUNNY 43 25 49 NW10 30.20F NEW BERN SUNNY 41 26 55 NW13G22 30.19F RICHLANDS SUNNY 42 24 49 NW9G20 30.20F ROCKY MOUNT MOSUNNY 41 26 55 W9G22 30.18F WASHINGTON SUNNY 42 24 47 NW9G16 30.19S WHITEVILLE SUNNY 42 23 45 W5 30.22F $$ AMZ130-135-150-152-154-156-158-170-250-252-270-ANZ085-086-088-633-658-670-101800- MARINE OBSERVATIONS STATION/POSITION TIME TEMP WIND PRES WAVE SWELL AIR SEA DIR/SP/G HT/PER HT/PER (UTC) (F) (DEG/KT/KT) (MB) (FT/S) (FT/S) CHESAPEAKE LIGHT NOT AVBL 64 E VA BEACH 1550 44 61 320/ 14/ 17 1019.0 6/ 8 5/ 8 DUCK 1636 40 53 300/ 14/ 16 1019.9 2 E DUCK 1630 54 N/A 3/ 9 OREGON INLET 1636 41 47 300/ 12/ 16 1020.3 13E OREGON INLT 1648 57 N/A 5/10 5/10 HATTERAS CG 1636 40 51 310/ 16/ 18 1020.9 DIAMOND BUOY 1650 44 68 300/ 14/ 19 1020.9 8/ 8 5/ 8 CAPE LOOKOUT 1700 320/ 13/ 15 1022.0 BEAUFORT LAB 1636 41 50 310/ 8/ 12 1022.0 30 SE NEW RVR IN 1608 43 66 350/ 16/ 21 1022.8 30 SE NEW RVR IN 1630 66 N/A 6/ 5 27 SE WRIGHTSVLE 1608 44 66 340/ 19/ 27 1022.7 5 SE WRIGHTSVLE 1608 42 58 330/ 16/ 23 1022.8 225 S CAPE HAT 1550 60 75 320/ 21/ 25 1019.8 11/ 8 3/14 41 SE CHARLESTON 1650 74 360/ 10/ 16 1024.1 4/ 6 3/ 6 $$

USA.gov is the U.S. government's official web portal to all federal, state and local government web resources and services.